Simultaneous Nadir Overpasses (SNOs) Predictions

Prediction of SNOs between FY3D and NOAA-19 Satellite Orbit:

Table of predicted SNOs for the next 14.0 days since TLE Epoch: 1/29/2024
Index Date (FY3D) Time (FY3D) Lat,Lon (FY3D) SZA (FY3D ) Date (NOAA-19) Time (NOAA-19) Lat,Lon (NOAA-19) SZA (NOAA-19 ) Distance(km) Time Diff (sec)
1 02/11/2024 23:50:13 75.92, 179.55 89.86 02/11/2024 23:49:03 75.90, 177.75 89.90 48.88 70
2 02/12/2024 00:41:04 -76.17, -14.00 89.88 02/12/2024 00:39:58 -76.16, -14.05 89.88 1.84 66
3 02/12/2024 01:31:50 76.19, 153.22 90.14 02/12/2024 01:30:55 76.18, 153.30 90.13 2.55 55
4 02/12/2024 02:22:35 -76.17, -39.38 89.91 02/12/2024 02:21:56 -76.17, -39.48 89.89 2.84 39



Historial Predications of SNOs between FY3D and NOAA-19
